Schedule Details


Flight Number: CTN471
Departure: Charles-de-gaulle (LFPG) at 18:30
Arrival: Franjo Tudman (LDZA) at 20:20
Route: LANVI UM164 EPL UN491 DEGES UN871 MADEB UN606 ELMEM UL607 GEDSO DCT VEKEN Y177 DEGUM DCT ARGOM

Weather Information
LFPG 221600Z 18010KT 9999 SCT010 BKN130 17/15 Q1010 NOSIG
LDZA 221600Z 21004KT CAVOK 18/12 Q1016 NOSIG
Schedule Frequency

Route Map